Time,TemperatureF,DewpointF,PressureIn,WindDirection,WindDirectionDegrees,WindSpeedMPH,WindSpeedGustMPH,Humidity,HourlyPrecipIn,Conditions,Clouds,dailyrainin,SoftwareType,DateUTC
2013-02-13 00:00:00,69.5,67.7,30.04,SW,231,0.0,0.0,94,0.00,,,0.00,Wunderground v.1.15,2013-02-13 05:00:00,
2013-02-13 00:02:00,69.5,67.7,30.03,SW,231,0.0,0.0,94,0.00,,,0.00,Wunderground v.1.15,2013-02-13 05:02:00,
2013-02-13 00:04:00,69.5,68.0,30.03,SW,231,0.0,0.0,95,0.00,,,0.00,Wunderground v.1.15,2013-02-13 05:04:00,
2013-02-13 00:09:00,69.6,68.1,30.03,SW,231,0.0,0.0,95,0.00,,,0.00,Wunderground v.1.15,2013-02-13 05:09:00,
2013-02-13 00:14:00,69.6,68.1,30.03,SW,231,0.0,0.0,95,0.00,,,0.00,Wunderground v.1.15,2013-02-13 05:14:00,
2013-02-13 00:19:00,69.6,68.1,30.03,SW,231,0.0,0.0,95,0.00,,,0.00,Wunderground v.1.15,2013-02-13 05:19:00,
2013-02-13 00:24:00,69.6,68.1,30.03,SW,231,0.0,0.0,95,0.00,,,0.00,Wunderground v.1.15,2013-02-13 05:24:00,
2013-02-13 00:29:00,69.6,68.1,30.02,SW,231,0.0,0.0,95,0.00,,,0.00,Wunderground v.1.15,2013-02-13 05:29:00,
2013-02-13 00:35:00,69.6,68.4,30.03,SW,231,0.0,0.0,96,0.00,,,0.00,Wunderground v.1.15,2013-02-13 05:35:00,
2013-02-13 00:40:00,69.5,68.0,30.03,SW,231,0.0,0.0,95,0.00,,,0.00,Wunderground v.1.15,2013-02-13 05:40:00,
2013-02-13 00:45:00,69.4,67.9,30.03,SW,231,0.0,0.0,95,0.00,,,0.00,Wunderground v.1.15,2013-02-13 05:45:00,
2013-02-13 00:50:00,69.4,67.9,30.03,SW,231,0.0,0.0,95,0.00,,,0.00,Wunderground v.1.15,2013-02-13 05:50:00,
2013-02-13 00:55:00,69.3,67.8,30.03,SW,231,0.0,0.0,95,0.00,,,0.00,Wunderground v.1.15,2013-02-13 05:55:00,
2013-02-13 01:00:00,69.2,67.7,30.03,SW,231,0.0,0.0,95,0.00,,,0.00,Wunderground v.1.15,2013-02-13 06:00:00,
2013-02-13 01:06:00,69.2,68.0,30.03,SW,231,0.0,0.0,96,0.00,,,0.00,Wunderground v.1.15,2013-02-13 06:06:00,
2013-02-13 01:11:00,69.2,68.0,30.03,SW,231,0.0,0.0,96,0.00,,,0.00,Wunderground v.1.15,2013-02-13 06:11:00,
2013-02-13 01:16:00,69.3,68.1,30.02,SW,231,0.0,0.0,96,0.00,,,0.00,Wunderground v.1.15,2013-02-13 06:16:00,
2013-02-13 01:21:00,69.3,68.1,30.02,SW,231,0.0,0.0,96,0.00,,,0.00,Wunderground v.1.15,2013-02-13 06:21:00,
2013-02-13 01:26:00,69.3,68.1,30.02,SW,231,0.0,0.0,96,0.00,,,0.00,Wunderground v.1.15,2013-02-13 06:26:00,
2013-02-13 01:32:00,69.3,68.1,30.02,SW,231,0.0,0.0,96,0.00,,,0.00,Wunderground v.1.15,2013-02-13 06:32:00,
2013-02-13 01:37:00,69.6,68.4,30.02,SW,231,0.0,0.0,96,0.00,,,0.00,Wunderground v.1.15,2013-02-13 06:37:00,
2013-02-13 01:42:00,69.6,68.4,30.02,SW,225,0.0,0.0,96,0.00,,,0.00,Wunderground v.1.15,2013-02-13 06:42:00,
2013-02-13 01:47:00,69.6,68.4,30.02,SSW,212,0.0,0.0,96,0.00,,,0.00,Wunderground v.1.15,2013-02-13 06:47:00,
2013-02-13 01:52:00,69.7,68.5,30.02,SSW,212,0.0,0.0,96,0.00,,,0.00,Wunderground v.1.15,2013-02-13 06:52:00,
2013-02-13 01:57:00,69.6,68.4,30.02,SSW,204,0.0,0.0,96,0.00,,,0.00,Wunderground v.1.15,2013-02-13 06:57:00,
2013-02-13 02:02:00,69.7,68.5,30.02,SSW,194,0.0,0.0,96,0.00,,,0.00,Wunderground v.1.15,2013-02-13 07:02:00,
2013-02-13 02:07:00,69.7,68.5,30.01,SSW,194,0.0,0.0,96,0.00,,,0.00,Wunderground v.1.15,2013-02-13 07:07:00,
2013-02-13 02:12:00,69.7,68.5,30.01,SSW,194,0.0,0.0,96,0.00,,,0.00,Wunderground v.1.15,2013-02-13 07:12:00,
2013-02-13 02:17:00,69.7,68.5,30.01,SSW,198,0.0,0.0,96,0.00,,,0.00,Wunderground v.1.15,2013-02-13 07:17:00,
2013-02-13 02:22:00,69.7,68.5,30.01,SSW,205,0.0,0.0,96,0.00,,,0.00,Wunderground v.1.15,2013-02-13 07:22:00,
2013-02-13 02:27:00,69.8,68.6,30.01,SW,219,0.0,0.0,96,0.00,,,0.00,Wunderground v.1.15,2013-02-13 07:27:00,
2013-02-13 02:32:00,69.9,68.7,30.01,SW,220,0.0,0.0,96,0.00,,,0.00,Wunderground v.1.15,2013-02-13 07:32:00,
2013-02-13 02:37:00,69.8,68.6,30.01,SW,219,0.0,0.0,96,0.00,,,0.00,Wunderground v.1.15,2013-02-13 07:37:00,
2013-02-13 02:42:00,69.8,68.6,30.00,SW,218,0.0,0.0,96,0.00,,,0.00,Wunderground v.1.15,2013-02-13 07:42:00,
2013-02-13 02:47:00,69.8,68.6,30.00,SW,219,0.0,0.0,96,0.00,,,0.00,Wunderground v.1.15,2013-02-13 07:47:00,
2013-02-13 02:52:00,69.9,68.7,30.00,SSW,203,0.0,0.0,96,0.00,,,0.00,Wunderground v.1.15,2013-02-13 07:52:00,
2013-02-13 02:57:00,69.9,68.7,30.00,SSE,166,0.0,1.0,96,0.00,,,0.00,Wunderground v.1.15,2013-02-13 07:57:00,
2013-02-13 03:02:00,69.9,68.7,30.00,SSE,166,0.0,0.0,96,0.00,,,0.00,Wunderground v.1.15,2013-02-13 08:02:00,
2013-02-13 03:07:00,69.9,68.7,30.00,South,180,0.0,1.0,96,0.00,,,0.00,Wunderground v.1.15,2013-02-13 08:07:00,
2013-02-13 03:12:00,70.0,68.8,30.00,SSW,201,0.0,1.0,96,0.00,,,0.00,Wunderground v.1.15,2013-02-13 08:12:00,
2013-02-13 03:17:00,69.9,68.7,29.99,SE,146,0.0,1.0,96,0.00,,,0.00,Wunderground v.1.15,2013-02-13 08:17:00,
2013-02-13 03:22:00,69.9,68.7,29.99,SSE,152,0.0,0.0,96,0.00,,,0.00,Wunderground v.1.15,2013-02-13 08:22:00,
2013-02-13 03:27:00,69.9,68.7,29.99,SSE,153,0.0,0.0,96,0.00,,,0.00,Wunderground v.1.15,2013-02-13 08:27:00,
2013-02-13 03:32:00,69.9,68.7,29.99,SSE,161,0.0,0.0,96,0.00,,,0.00,Wunderground v.1.15,2013-02-13 08:32:00,
2013-02-13 03:37:00,69.9,69.0,29.99,SSE,160,0.0,0.0,97,0.00,,,0.00,Wunderground v.1.15,2013-02-13 08:37:00,
2013-02-13 03:42:00,69.9,68.7,29.99,SSE,160,0.0,0.0,96,0.00,,,0.00,Wunderground v.1.15,2013-02-13 08:42:00,
2013-02-13 03:47:00,69.8,68.6,29.99,SSE,160,0.0,0.0,96,0.00,,,0.00,Wunderground v.1.15,2013-02-13 08:47:00,
2013-02-13 03:52:00,69.7,68.5,29.99,SSE,160,0.0,0.0,96,0.00,,,0.00,Wunderground v.1.15,2013-02-13 08:52:00,
2013-02-13 03:57:00,69.6,68.4,29.99,SSE,160,0.0,0.0,96,0.00,,,0.00,Wunderground v.1.15,2013-02-13 08:57:00,
2013-02-13 04:02:00,69.5,68.3,29.99,SSE,160,0.0,0.0,96,0.00,,,0.00,Wunderground v.1.15,2013-02-13 09:02:00,
2013-02-13 04:07:00,69.3,68.1,29.99,SSE,161,0.0,0.0,96,0.00,,,0.00,Wunderground v.1.15,2013-02-13 09:07:00,
2013-02-13 04:12:00,69.3,68.1,29.99,SSE,160,0.0,0.0,96,0.00,,,0.00,Wunderground v.1.15,2013-02-13 09:12:00,
2013-02-13 04:17:00,69.1,67.9,29.99,SSE,160,0.0,0.0,96,0.00,,,0.00,Wunderground v.1.15,2013-02-13 09:17:00,
2013-02-13 04:22:00,68.9,67.7,30.00,SSE,161,0.0,0.0,96,0.00,,,0.00,Wunderground v.1.15,2013-02-13 09:22:00,
2013-02-13 04:27:00,69.0,68.1,30.00,SSE,160,0.0,0.0,97,0.00,,,0.00,Wunderground v.1.15,2013-02-13 09:27:00,
2013-02-13 04:32:00,69.1,68.2,30.00,SSE,160,0.0,0.0,97,0.00,,,0.00,Wunderground v.1.15,2013-02-13 09:32:00,
2013-02-13 04:37:00,68.8,67.6,30.00,SSE,160,0.0,0.0,96,0.00,,,0.00,Wunderground v.1.15,2013-02-13 09:37:00,
2013-02-13 04:42:00,68.6,67.4,30.00,SSE,160,0.0,0.0,96,0.00,,,0.00,Wunderground v.1.15,2013-02-13 09:42:00,
2013-02-13 04:47:00,68.6,67.7,30.00,SSE,160,0.0,0.0,97,0.00,,,0.00,Wunderground v.1.15,2013-02-13 09:47:00,
2013-02-13 04:52:00,68.5,67.6,30.00,SSE,160,0.0,0.0,97,0.00,,,0.00,Wunderground v.1.15,2013-02-13 09:52:00,
2013-02-13 04:57:00,68.4,67.5,30.00,SSE,160,0.0,0.0,97,0.00,,,0.00,Wunderground v.1.15,2013-02-13 09:57:00,
2013-02-13 05:02:00,68.3,67.4,30.00,SSE,160,0.0,0.0,97,0.00,,,0.00,Wunderground v.1.15,2013-02-13 10:02:00,
2013-02-13 05:07:00,68.4,67.5,30.00,SSE,160,0.0,0.0,97,0.00,,,0.00,Wunderground v.1.15,2013-02-13 10:07:00,
2013-02-13 05:12:00,68.4,67.5,30.00,SSE,160,0.0,0.0,97,0.00,,,0.00,Wunderground v.1.15,2013-02-13 10:12:00,
2013-02-13 05:17:00,68.4,67.5,30.00,SSE,160,0.0,0.0,97,0.00,,,0.00,Wunderground v.1.15,2013-02-13 10:17:00,
2013-02-13 05:22:00,68.4,67.5,30.00,SSE,161,0.0,0.0,97,0.00,,,0.00,Wunderground v.1.15,2013-02-13 10:22:00,
2013-02-13 05:27:00,68.4,67.5,30.00,SSE,160,0.0,0.0,97,0.00,,,0.00,Wunderground v.1.15,2013-02-13 10:27:00,
2013-02-13 05:32:00,68.5,67.6,30.00,SSE,160,0.0,0.0,97,0.00,,,0.00,Wunderground v.1.15,2013-02-13 10:32:00,
2013-02-13 05:37:00,68.4,67.5,30.00,SSE,160,0.0,0.0,97,0.00,,,0.00,Wunderground v.1.15,2013-02-13 10:37:00,
2013-02-13 05:42:00,68.4,67.5,30.00,SSE,160,0.0,0.0,97,0.00,,,0.00,Wunderground v.1.15,2013-02-13 10:42:00,
2013-02-13 05:47:00,68.4,67.5,30.00,SSE,160,0.0,0.0,97,0.00,,,0.00,Wunderground v.1.15,2013-02-13 10:47:00,
2013-02-13 05:52:00,68.2,67.3,30.00,SSE,161,0.0,0.0,97,0.00,,,0.00,Wunderground v.1.15,2013-02-13 10:52:00,
2013-02-13 05:57:00,68.3,67.4,30.00,SSE,161,0.0,0.0,97,0.00,,,0.00,Wunderground v.1.15,2013-02-13 10:57:00,
2013-02-13 06:02:00,68.4,67.8,30.00,SSE,160,0.0,0.0,98,0.00,,,0.00,Wunderground v.1.15,2013-02-13 11:02:00,
2013-02-13 06:07:00,68.6,68.0,30.01,SSE,161,0.0,0.0,98,0.00,,,0.00,Wunderground v.1.15,2013-02-13 11:07:00,
2013-02-13 06:12:00,68.7,68.1,30.00,SSE,160,0.0,0.0,98,0.00,,,0.00,Wunderground v.1.15,2013-02-13 11:12:00,
2013-02-13 06:17:00,68.6,68.0,30.00,SSE,161,0.0,0.0,98,0.00,,,0.00,Wunderground v.1.15,2013-02-13 11:17:00,
2013-02-13 06:22:00,68.6,68.0,30.01,SSE,161,0.0,0.0,98,0.00,,,0.00,Wunderground v.1.15,2013-02-13 11:22:00,
2013-02-13 06:27:00,68.7,68.1,30.00,SSE,161,0.0,0.0,98,0.00,,,0.00,Wunderground v.1.15,2013-02-13 11:27:00,
2013-02-13 06:33:00,68.6,67.7,30.00,SSE,160,0.0,0.0,97,0.00,,,0.00,Wunderground v.1.15,2013-02-13 11:33:00,
2013-02-13 06:38:00,68.4,67.8,30.01,SSE,160,0.0,0.0,98,0.00,,,0.00,Wunderground v.1.15,2013-02-13 11:38:00,
2013-02-13 06:43:00,68.5,67.9,30.01,SSE,160,0.0,0.0,98,0.00,,,0.00,Wunderground v.1.15,2013-02-13 11:43:00,
2013-02-13 06:48:00,68.6,68.0,30.00,SSE,160,0.0,0.0,98,0.00,,,0.00,Wunderground v.1.15,2013-02-13 11:48:00,
2013-02-13 06:53:00,68.6,68.0,30.00,SSE,160,0.0,0.0,98,0.00,,,0.00,Wunderground v.1.15,2013-02-13 11:53:00,
2013-02-13 06:58:00,68.7,68.1,30.01,SSE,160,0.0,0.0,98,0.00,,,0.00,Wunderground v.1.15,2013-02-13 11:58:00,
2013-02-13 07:03:00,68.7,68.1,30.01,SSE,161,0.0,0.0,98,0.00,,,0.00,Wunderground v.1.15,2013-02-13 12:03:00,
2013-02-13 07:08:00,68.8,68.2,30.00,SSE,160,0.0,0.0,98,0.00,,,0.00,Wunderground v.1.15,2013-02-13 12:08:00,
2013-02-13 07:13:00,68.9,68.3,30.01,SSE,161,0.0,0.0,98,0.00,,,0.00,Wunderground v.1.15,2013-02-13 12:13:00,
2013-02-13 07:18:00,69.0,68.4,30.01,SSE,160,0.0,0.0,98,0.00,,,0.00,Wunderground v.1.15,2013-02-13 12:18:00,
2013-02-13 07:24:00,69.0,68.4,30.01,SSE,160,0.0,0.0,98,0.00,,,0.00,Wunderground v.1.15,2013-02-13 12:24:00,
2013-02-13 07:29:00,69.3,68.7,30.01,SSE,160,0.0,0.0,98,0.00,,,0.00,Wunderground v.1.15,2013-02-13 12:29:00,
2013-02-13 07:34:00,69.7,69.1,30.01,SSE,162,0.0,0.0,98,0.00,,,0.00,Wunderground v.1.15,2013-02-13 12:34:00,
2013-02-13 07:39:00,70.2,69.6,30.01,SSE,162,0.0,0.0,98,0.00,,,0.00,Wunderground v.1.15,2013-02-13 12:39:00,
2013-02-13 07:44:00,70.6,70.0,30.01,SSE,162,0.0,0.0,98,0.00,,,0.00,Wunderground v.1.15,2013-02-13 12:44:00,
2013-02-13 07:49:00,70.9,70.3,30.01,SSE,162,0.0,0.0,98,0.00,,,0.00,Wunderground v.1.15,2013-02-13 12:49:00,
2013-02-13 07:54:00,71.2,70.6,30.02,SSE,165,0.0,1.0,98,0.00,,,0.00,Wunderground v.1.15,2013-02-13 12:54:00,
2013-02-13 07:59:00,71.5,70.9,30.02,South,180,0.0,1.0,98,0.00,,,0.00,Wunderground v.1.15,2013-02-13 12:59:00,
2013-02-13 08:05:00,71.9,71.3,30.02,SW,229,0.0,1.0,98,0.00,,,0.00,Wunderground v.1.15,2013-02-13 13:05:00,
2013-02-13 08:10:00,72.4,71.8,30.02,SSW,200,0.0,0.0,98,0.00,,,0.00,Wunderground v.1.15,2013-02-13 13:10:00,
2013-02-13 08:15:00,72.8,71.9,30.02,WSW,238,0.0,3.0,97,0.00,,,0.00,Wunderground v.1.15,2013-02-13 13:15:00,
2013-02-13 08:20:00,73.4,72.5,30.02,SSW,197,0.0,0.0,97,0.00,,,0.00,Wunderground v.1.15,2013-02-13 13:20:00,
2013-02-13 08:25:00,74.0,72.5,30.02,SW,214,0.0,5.0,95,0.00,,,0.00,Wunderground v.1.15,2013-02-13 13:25:00,
2013-02-13 08:30:00,74.6,72.8,30.02,South,186,3.0,3.0,94,0.00,,,0.00,Wunderground v.1.15,2013-02-13 13:30:00,
2013-02-13 08:35:00,75.2,72.7,30.01,SSW,212,1.0,5.0,92,0.00,,,0.00,Wunderground v.1.15,2013-02-13 13:35:00,
2013-02-13 08:40:00,75.7,72.9,30.02,NNE,20,0.0,1.0,91,0.00,,,0.00,Wunderground v.1.15,2013-02-13 13:40:00,
2013-02-13 08:45:00,76.2,72.7,30.02,SSW,208,0.0,6.0,89,0.00,,,0.00,Wunderground v.1.15,2013-02-13 13:45:00,
2013-02-13 08:50:00,76.5,72.7,30.02,SW,221,6.0,6.0,88,0.00,,,0.00,Wunderground v.1.15,2013-02-13 13:50:00,
2013-02-13 08:55:00,76.7,72.5,30.02,NE,56,1.0,8.0,87,0.00,,,0.00,Wunderground v.1.15,2013-02-13 13:55:00,
2013-02-13 09:00:00,77.2,72.7,30.02,SSW,212,4.0,4.0,86,0.00,,,0.00,Wunderground v.1.15,2013-02-13 14:00:00,
2013-02-13 09:05:00,77.3,72.4,30.02,SW,217,7.0,11.0,85,0.00,,,0.00,Wunderground v.1.15,2013-02-13 14:05:00,
2013-02-13 09:10:00,77.5,72.6,30.02,SW,216,3.0,3.0,85,0.00,,,0.00,Wunderground v.1.15,2013-02-13 14:10:00,
2013-02-13 09:15:00,77.7,72.5,30.03,SSW,211,6.0,8.0,84,0.00,,,0.00,Wunderground v.1.15,2013-02-13 14:15:00,
2013-02-13 09:20:00,77.9,72.7,30.03,SSW,208,1.0,4.0,84,0.00,,,0.00,Wunderground v.1.15,2013-02-13 14:20:00,
2013-02-13 09:25:00,78.1,72.5,30.03,SSE,150,2.0,7.0,83,0.00,,,0.00,Wunderground v.1.15,2013-02-13 14:25:00,
2013-02-13 09:30:00,78.4,72.8,30.03,SW,216,3.0,5.0,83,0.00,,,0.00,Wunderground v.1.15,2013-02-13 14:30:00,
2013-02-13 09:35:00,78.9,72.6,30.03,SSE,168,4.0,9.0,81,0.00,,,0.00,Wunderground v.1.15,2013-02-13 14:35:00,
2013-02-13 09:40:00,79.3,73.0,30.03,South,172,5.0,5.0,81,0.00,,,0.00,Wunderground v.1.15,2013-02-13 14:40:00,
2013-02-13 09:45:00,79.3,73.0,30.03,SSW,205,0.0,8.0,81,0.00,,,0.00,Wunderground v.1.15,2013-02-13 14:45:00,
2013-02-13 09:50:00,79.0,72.3,30.03,South,191,3.0,4.0,80,0.00,,,0.00,Wunderground v.1.15,2013-02-13 14:50:00,
2013-02-13 09:55:00,79.1,72.8,30.03,SW,217,3.0,8.0,81,0.00,,,0.00,Wunderground v.1.15,2013-02-13 14:55:00,
2013-02-13 10:00:00,79.4,72.7,30.03,WSW,256,5.0,7.0,80,0.00,,,0.00,Wunderground v.1.15,2013-02-13 15:00:00,
2013-02-13 10:05:00,79.6,72.9,30.03,SE,134,4.0,9.0,80,0.00,,,0.00,Wunderground v.1.15,2013-02-13 15:05:00,
2013-02-13 10:10:00,79.7,73.0,30.03,SSW,205,2.0,3.0,80,0.00,,,0.00,Wunderground v.1.15,2013-02-13 15:10:00,
2013-02-13 10:15:00,79.8,72.7,30.04,SSW,194,6.0,10.0,79,0.00,,,0.00,Wunderground v.1.15,2013-02-13 15:15:00,
2013-02-13 10:20:00,79.8,72.7,30.04,SW,217,3.0,5.0,79,0.00,,,0.00,Wunderground v.1.15,2013-02-13 15:20:00,
2013-02-13 10:25:00,80.4,72.9,30.04,SW,233,3.0,9.0,78,0.00,,,0.00,Wunderground v.1.15,2013-02-13 15:25:00,
2013-02-13 10:30:00,80.8,72.9,30.03,South,172,2.0,5.0,77,0.00,,,0.00,Wunderground v.1.15,2013-02-13 15:30:00,
2013-02-13 10:35:00,81.1,72.8,30.03,SSW,201,2.0,9.0,76,0.00,,,0.00,Wunderground v.1.15,2013-02-13 15:35:00,
2013-02-13 10:40:00,81.1,72.4,30.03,SW,235,4.0,6.0,75,0.00,,,0.00,Wunderground v.1.15,2013-02-13 15:40:00,
2013-02-13 10:45:00,81.0,72.7,30.03,East,101,1.0,10.0,76,0.00,,,0.00,Wunderground v.1.15,2013-02-13 15:45:00,
2013-02-13 10:50:00,81.2,72.5,30.03,SSW,210,1.0,7.0,75,0.00,,,0.00,Wunderground v.1.15,2013-02-13 15:50:00,
2013-02-13 10:55:00,81.5,72.8,30.03,SW,233,5.0,8.0,75,0.00,,,0.00,Wunderground v.1.15,2013-02-13 15:55:00,
2013-02-13 11:00:00,81.9,72.8,30.03,East,91,7.0,7.0,74,0.00,,,0.00,Wunderground v.1.15,2013-02-13 16:00:00,
2013-02-13 11:05:00,82.3,73.6,30.02,WSW,240,2.0,7.0,75,0.00,,,0.00,Wunderground v.1.15,2013-02-13 16:05:00,
2013-02-13 11:10:00,82.3,72.8,30.02,SW,214,3.0,6.0,73,0.00,,,0.00,Wunderground v.1.15,2013-02-13 16:10:00,
2013-02-13 11:15:00,82.4,73.3,30.02,West,259,5.0,11.0,74,0.00,,,0.00,Wunderground v.1.15,2013-02-13 16:15:00,
2013-02-13 11:20:00,82.3,72.8,30.02,South,181,2.0,6.0,73,0.00,,,0.00,Wunderground v.1.15,2013-02-13 16:20:00,
2013-02-13 11:25:00,82.1,72.6,30.02,SSW,205,4.0,9.0,73,0.00,,,0.00,Wunderground v.1.15,2013-02-13 16:25:00,
2013-02-13 11:30:00,81.9,72.4,30.02,SW,235,4.0,6.0,73,0.00,,,0.00,Wunderground v.1.15,2013-02-13 16:30:00,
2013-02-13 11:35:00,82.3,72.4,30.02,SSW,197,5.0,8.0,72,0.00,,,0.00,Wunderground v.1.15,2013-02-13 16:35:00,
2013-02-13 11:40:00,82.8,72.8,30.01,SW,229,4.0,7.0,72,0.00,,,0.00,Wunderground v.1.15,2013-02-13 16:40:00,
2013-02-13 11:45:00,82.7,72.7,30.01,SSW,205,4.0,7.0,72,0.00,,,0.00,Wunderground v.1.15,2013-02-13 16:45:00,
2013-02-13 11:50:00,82.3,72.8,30.01,SW,235,1.0,8.0,73,0.00,,,0.00,Wunderground v.1.15,2013-02-13 16:50:00,
2013-02-13 11:55:00,82.7,73.2,30.01,NE,45,0.0,11.0,73,0.00,,,0.00,Wunderground v.1.15,2013-02-13 16:55:00,
2013-02-13 12:01:00,82.9,73.4,30.01,South,180,1.0,5.0,73,0.00,,,0.00,Wunderground v.1.15,2013-02-13 17:01:00,
2013-02-13 12:06:00,83.6,73.6,30.00,WSW,248,2.0,9.0,72,0.00,,,0.00,Wunderground v.1.15,2013-02-13 17:06:00,
2013-02-13 12:11:00,83.8,73.8,30.00,East,94,5.0,6.0,72,0.00,,,0.00,Wunderground v.1.15,2013-02-13 17:11:00,
2013-02-13 12:16:00,83.4,73.0,30.00,SSW,212,2.0,8.0,71,0.00,,,0.00,Wunderground v.1.15,2013-02-13 17:16:00,
2013-02-13 12:21:00,83.4,73.0,30.00,SW,226,7.0,7.0,71,0.00,,,0.00,Wunderground v.1.15,2013-02-13 17:21:00,
2013-02-13 12:26:00,83.1,72.7,30.00,SSW,195,1.0,8.0,71,0.00,,,0.00,Wunderground v.1.15,2013-02-13 17:26:00,
2013-02-13 12:31:00,82.2,72.3,30.00,SW,214,3.0,5.0,72,0.00,,,0.00,Wunderground v.1.15,2013-02-13 17:31:00,
2013-02-13 12:36:00,81.6,72.1,30.00,WSW,249,5.0,11.0,73,0.00,,,0.00,Wunderground v.1.15,2013-02-13 17:36:00,
2013-02-13 12:41:00,82.0,72.5,29.99,West,259,1.0,6.0,73,0.00,,,0.00,Wunderground v.1.15,2013-02-13 17:41:00,
2013-02-13 12:46:00,82.1,72.2,29.99,SW,226,4.0,8.0,72,0.00,,,0.00,Wunderground v.1.15,2013-02-13 17:46:00,
2013-02-13 12:51:00,81.6,72.1,29.98,SSW,210,5.0,7.0,73,0.00,,,0.00,Wunderground v.1.15,2013-02-13 17:51:00,
2013-02-13 12:56:00,81.4,72.7,29.98,WSW,242,2.0,10.0,75,0.00,,,0.00,Wunderground v.1.15,2013-02-13 17:56:00,
2013-02-13 13:01:00,82.3,72.8,29.98,SW,225,5.0,11.0,73,0.00,,,0.00,Wunderground v.1.15,2013-02-13 18:01:00,
2013-02-13 13:06:00,82.9,72.5,29.98,ESE,108,4.0,14.0,71,0.00,,,0.00,Wunderground v.1.15,2013-02-13 18:06:00,
2013-02-13 13:11:00,82.9,72.9,29.97,SSW,194,2.0,8.0,72,0.00,,,0.00,Wunderground v.1.15,2013-02-13 18:11:00,
2013-02-13 13:16:00,82.8,72.8,29.97,SW,233,8.0,11.0,72,0.00,,,0.00,Wunderground v.1.15,2013-02-13 18:16:00,
2013-02-13 13:21:00,83.2,72.8,29.97,SSW,205,3.0,12.0,71,0.00,,,0.00,Wunderground v.1.15,2013-02-13 18:21:00,
2013-02-13 13:26:00,83.6,73.2,29.96,SE,143,3.0,12.0,71,0.00,,,0.00,Wunderground v.1.15,2013-02-13 18:26:00,
2013-02-13 13:31:00,83.3,72.9,29.96,SSW,193,0.0,7.0,71,0.00,,,0.00,Wunderground v.1.15,2013-02-13 18:31:00,
2013-02-13 13:36:00,82.6,72.7,29.96,SW,221,5.0,11.0,72,0.00,,,0.00,Wunderground v.1.15,2013-02-13 18:36:00,
2013-02-13 13:41:00,83.0,73.4,29.95,SE,141,3.0,8.0,73,0.00,,,0.00,Wunderground v.1.15,2013-02-13 18:41:00,
2013-02-13 13:46:00,83.6,72.8,29.95,SSW,200,8.0,9.0,70,0.00,,,0.00,Wunderground v.1.15,2013-02-13 18:46:00,
2013-02-13 13:51:00,83.6,72.8,29.95,SE,143,2.0,7.0,70,0.00,,,0.00,Wunderground v.1.15,2013-02-13 18:51:00,
2013-02-13 13:56:00,83.4,72.6,29.95,SW,224,2.0,10.0,70,0.00,,,0.00,Wunderground v.1.15,2013-02-13 18:56:00,
2013-02-13 14:01:00,83.3,72.9,29.95,South,185,5.0,5.0,71,0.00,,,0.00,Wunderground v.1.15,2013-02-13 19:01:00,
2013-02-13 14:06:00,83.1,72.7,29.95,South,180,2.0,7.0,71,0.00,,,0.00,Wunderground v.1.15,2013-02-13 19:06:00,
2013-02-13 14:11:00,83.3,72.5,29.94,WSW,249,6.0,10.0,70,0.00,,,0.00,Wunderground v.1.15,2013-02-13 19:11:00,
2013-02-13 14:16:00,82.9,72.5,29.94,SSW,210,7.0,12.0,71,0.00,,,0.00,Wunderground v.1.15,2013-02-13 19:16:00,
2013-02-13 14:21:00,82.6,72.2,29.94,SW,222,2.0,9.0,71,0.00,,,0.00,Wunderground v.1.15,2013-02-13 19:21:00,
2013-02-13 14:26:00,82.8,72.4,29.94,SSW,205,7.0,10.0,71,0.00,,,0.00,Wunderground v.1.15,2013-02-13 19:26:00,
2013-02-13 14:31:00,83.1,72.3,29.94,South,174,6.0,9.0,70,0.00,,,0.00,Wunderground v.1.15,2013-02-13 19:31:00,
2013-02-13 14:36:00,83.1,72.3,29.94,WSW,246,7.0,11.0,70,0.00,,,0.00,Wunderground v.1.15,2013-02-13 19:36:00,
2013-02-13 14:41:00,82.6,72.2,29.94,SSW,204,6.0,11.0,71,0.00,,,0.00,Wunderground v.1.15,2013-02-13 19:41:00,
2013-02-13 14:46:00,82.7,72.7,29.93,SW,228,2.0,14.0,72,0.00,,,0.00,Wunderground v.1.15,2013-02-13 19:46:00,
2013-02-13 14:51:00,82.8,72.4,29.94,SSW,204,3.0,11.0,71,0.00,,,0.00,Wunderground v.1.15,2013-02-13 19:51:00,
2013-02-13 14:56:00,83.2,72.8,29.93,SW,224,1.0,11.0,71,0.00,,,0.00,Wunderground v.1.15,2013-02-13 19:56:00,
2013-02-13 15:01:00,82.9,72.5,29.93,SW,231,11.0,11.0,71,0.00,,,0.00,Wunderground v.1.15,2013-02-13 20:01:00,
2013-02-13 15:06:00,82.6,72.7,29.93,WSW,253,3.0,11.0,72,0.00,,,0.00,Wunderground v.1.15,2013-02-13 20:06:00,
2013-02-13 15:11:00,82.6,72.7,29.93,SSW,212,5.0,10.0,72,0.00,,,0.00,Wunderground v.1.15,2013-02-13 20:11:00,
2013-02-13 15:16:00,82.4,72.5,29.93,SSW,198,0.0,10.0,72,0.00,,,0.00,Wunderground v.1.15,2013-02-13 20:16:00,
2013-02-13 15:21:00,82.4,72.5,29.93,SW,214,5.0,12.0,72,0.00,,,0.00,Wunderground v.1.15,2013-02-13 20:21:00,
2013-02-13 15:26:00,81.9,72.4,29.93,SSE,153,1.0,12.0,73,0.00,,,0.00,Wunderground v.1.15,2013-02-13 20:26:00,
2013-02-13 15:31:00,82.2,72.7,29.93,SE,129,2.0,6.0,73,0.00,,,0.00,Wunderground v.1.15,2013-02-13 20:31:00,
2013-02-13 15:36:00,82.3,72.4,29.93,SSW,197,3.0,11.0,72,0.00,,,0.00,Wunderground v.1.15,2013-02-13 20:36:00,
2013-02-13 15:41:00,82.0,72.5,29.93,East,89,6.0,11.0,73,0.00,,,0.00,Wunderground v.1.15,2013-02-13 20:41:00,
2013-02-13 15:46:00,82.3,73.2,29.93,SW,235,7.0,11.0,74,0.00,,,0.00,Wunderground v.1.15,2013-02-13 20:46:00,
2013-02-13 15:51:00,82.4,72.9,29.93,SE,145,2.0,8.0,73,0.00,,,0.00,Wunderground v.1.15,2013-02-13 20:51:00,
2013-02-13 15:56:00,82.3,72.4,29.93,South,172,6.0,11.0,72,0.00,,,0.00,Wunderground v.1.15,2013-02-13 20:56:00,
2013-02-13 16:01:00,82.0,72.9,29.93,East,91,1.0,7.0,74,0.00,,,0.00,Wunderground v.1.15,2013-02-13 21:01:00,
2013-02-13 16:06:00,82.2,72.7,29.93,SSW,200,4.0,7.0,73,0.00,,,0.00,Wunderground v.1.15,2013-02-13 21:06:00,
2013-02-13 16:11:00,82.0,72.5,29.93,South,169,3.0,9.0,73,0.00,,,0.00,Wunderground v.1.15,2013-02-13 21:11:00,
2013-02-13 16:16:00,81.7,72.6,29.93,SSW,200,3.0,9.0,74,0.00,,,0.00,Wunderground v.1.15,2013-02-13 21:16:00,
2013-02-13 16:21:00,81.6,72.9,29.93,SW,214,3.0,5.0,75,0.00,,,0.00,Wunderground v.1.15,2013-02-13 21:21:00,
2013-02-13 16:26:00,81.7,72.6,29.93,South,191,4.0,12.0,74,0.00,,,0.00,Wunderground v.1.15,2013-02-13 21:26:00,
2013-02-13 16:31:00,81.6,72.5,29.93,SSW,208,3.0,8.0,74,0.00,,,0.00,Wunderground v.1.15,2013-02-13 21:31:00,
2013-02-13 16:36:00,82.4,72.9,29.93,WSW,246,4.0,8.0,73,0.00,,,0.00,Wunderground v.1.15,2013-02-13 21:36:00,
2013-02-13 16:42:00,82.6,72.7,29.93,SW,216,5.0,10.0,72,0.00,,,0.00,Wunderground v.1.15,2013-02-13 21:42:00,
2013-02-13 16:47:00,82.2,72.7,29.93,WSW,238,9.0,10.0,73,0.00,,,0.00,Wunderground v.1.15,2013-02-13 21:47:00,
2013-02-13 16:52:00,82.5,73.0,29.93,West,277,2.0,5.0,73,0.00,,,0.00,Wunderground v.1.15,2013-02-13 21:52:00,
2013-02-13 16:57:00,83.0,72.6,29.93,WSW,257,8.0,10.0,71,0.00,,,0.00,Wunderground v.1.15,2013-02-13 21:57:00,
2013-02-13 17:02:00,83.2,72.8,29.93,SW,222,7.0,8.0,71,0.00,,,0.00,Wunderground v.1.15,2013-02-13 22:02:00,
2013-02-13 17:07:00,83.0,73.0,29.93,SSW,203,5.0,9.0,72,0.00,,,0.00,Wunderground v.1.15,2013-02-13 22:07:00,
2013-02-13 17:12:00,83.1,72.7,29.93,SSW,205,3.0,6.0,71,0.00,,,0.00,Wunderground v.1.15,2013-02-13 22:12:00,
2013-02-13 17:17:00,83.1,73.1,29.93,SSW,203,4.0,7.0,72,0.00,,,0.00,Wunderground v.1.15,2013-02-13 22:17:00,
2013-02-13 17:22:00,82.9,72.9,29.93,NE,40,2.0,6.0,72,0.00,,,0.00,Wunderground v.1.15,2013-02-13 22:22:00,
2013-02-13 17:27:00,82.4,72.5,29.93,WSW,239,4.0,8.0,72,0.00,,,0.00,Wunderground v.1.15,2013-02-13 22:27:00,
2013-02-13 17:32:00,82.0,72.5,29.93,SSW,207,2.0,9.0,73,0.00,,,0.00,Wunderground v.1.15,2013-02-13 22:32:00,
2013-02-13 17:37:00,82.0,71.2,29.93,WSW,257,3.0,10.0,70,0.00,,,0.00,Wunderground v.1.15,2013-02-13 22:37:00,
2013-02-13 17:42:00,81.7,71.0,29.93,SSW,198,3.0,13.0,70,0.00,,,0.00,Wunderground v.1.15,2013-02-13 22:42:00,
2013-02-13 17:47:00,81.6,70.9,29.94,SSW,205,7.0,13.0,70,0.00,,,0.00,Wunderground v.1.15,2013-02-13 22:47:00,
2013-02-13 17:52:00,81.3,70.6,29.94,SW,216,7.0,9.0,70,0.00,,,0.00,Wunderground v.1.15,2013-02-13 22:52:00,
2013-02-13 17:57:00,81.0,70.7,29.94,SW,231,5.0,11.0,71,0.00,,,0.00,Wunderground v.1.15,2013-02-13 22:57:00,
2013-02-13 18:02:00,80.7,70.4,29.94,SSW,201,5.0,13.0,71,0.00,,,0.00,Wunderground v.1.15,2013-02-13 23:02:00,
2013-02-13 18:07:00,80.4,70.5,29.94,SSW,192,4.0,13.0,72,0.00,,,0.00,Wunderground v.1.15,2013-02-13 23:07:00,
2013-02-13 18:12:00,80.2,70.4,29.94,SSW,207,3.0,10.0,72,0.00,,,0.00,Wunderground v.1.15,2013-02-13 23:12:00,
2013-02-13 18:17:00,80.0,70.6,29.94,West,272,6.0,10.0,73,0.00,,,0.00,Wunderground v.1.15,2013-02-13 23:17:00,
2013-02-13 18:22:00,79.9,70.5,29.94,WSW,250,4.0,7.0,73,0.00,,,0.00,Wunderground v.1.15,2013-02-13 23:22:00,
2013-02-13 18:27:00,79.8,70.4,29.94,SW,217,5.0,8.0,73,0.00,,,0.00,Wunderground v.1.15,2013-02-13 23:27:00,
2013-02-13 18:32:00,79.7,70.7,29.94,West,262,4.0,11.0,74,0.00,,,0.00,Wunderground v.1.15,2013-02-13 23:32:00,
2013-02-13 18:37:00,79.5,70.9,29.94,WSW,250,4.0,11.0,75,0.00,,,0.00,Wunderground v.1.15,2013-02-13 23:37:00,
2013-02-13 18:42:00,79.4,70.8,29.95,WSW,245,6.0,8.0,75,0.00,,,0.00,Wunderground v.1.15,2013-02-13 23:42:00,
2013-02-13 18:47:00,79.2,70.6,29.95,West,263,4.0,8.0,75,0.00,,,0.00,Wunderground v.1.15,2013-02-13 23:47:00,
2013-02-13 18:52:00,79.0,71.2,29.95,West,266,5.0,8.0,77,0.00,,,0.00,Wunderground v.1.15,2013-02-13 23:52:00,
2013-02-13 18:57:00,78.9,70.7,29.95,WSW,249,3.0,8.0,76,0.00,,,0.00,Wunderground v.1.15,2013-02-13 23:57:00,
2013-02-13 19:03:00,78.7,70.9,29.95,WSW,248,5.0,8.0,77,0.00,,,0.00,Wunderground v.1.15,2013-02-14 00:03:00,
2013-02-13 19:08:00,78.6,71.2,29.96,WSW,239,2.0,8.0,78,0.00,,,0.00,Wunderground v.1.15,2013-02-14 00:08:00,
2013-02-13 19:13:00,78.4,71.0,29.96,WSW,238,3.0,8.0,78,0.00,,,0.00,Wunderground v.1.15,2013-02-14 00:13:00,
2013-02-13 19:18:00,78.2,71.2,29.96,SW,232,4.0,8.0,79,0.00,,,0.00,Wunderground v.1.15,2013-02-14 00:18:00,
2013-02-13 19:23:00,78.1,71.1,29.96,WSW,255,2.0,6.0,79,0.00,,,0.00,Wunderground v.1.15,2013-02-14 00:23:00,
2013-02-13 19:28:00,78.0,71.0,29.96,SW,224,0.0,6.0,79,0.00,,,0.00,Wunderground v.1.15,2013-02-14 00:28:00,
2013-02-13 19:33:00,77.9,70.9,29.96,South,191,1.0,5.0,79,0.00,,,0.00,Wunderground v.1.15,2013-02-14 00:33:00,
2013-02-13 19:38:00,77.7,71.0,29.96,WSW,245,1.0,5.0,80,0.00,,,0.00,Wunderground v.1.15,2013-02-14 00:38:00,
2013-02-13 19:44:00,77.5,70.8,29.96,WSW,239,3.0,5.0,80,0.00,,,0.00,Wunderground v.1.15,2013-02-14 00:44:00,
2013-02-13 19:49:00,77.4,71.1,29.96,WSW,257,4.0,6.0,81,0.00,,,0.00,Wunderground v.1.15,2013-02-14 00:49:00,
2013-02-13 19:54:00,77.2,70.9,29.96,WSW,246,2.0,7.0,81,0.00,,,0.00,Wunderground v.1.15,2013-02-14 00:54:00,
2013-02-13 19:59:00,77.1,71.2,29.96,WSW,238,2.0,7.0,82,0.00,,,0.00,Wunderground v.1.15,2013-02-14 00:59:00,
2013-02-13 20:04:00,77.0,71.1,29.96,WSW,245,2.0,5.0,82,0.00,,,0.00,Wunderground v.1.15,2013-02-14 01:04:00,
2013-02-13 20:09:00,76.9,71.0,29.97,SSW,204,3.0,5.0,82,0.00,,,0.00,Wunderground v.1.15,2013-02-14 01:09:00,
2013-02-13 20:14:00,76.8,71.2,29.97,SE,141,3.0,5.0,83,0.00,,,0.00,Wunderground v.1.15,2013-02-14 01:14:00,
2013-02-13 20:19:00,76.7,71.1,29.97,SW,229,0.0,5.0,83,0.00,,,0.00,Wunderground v.1.15,2013-02-14 01:19:00,
2013-02-13 20:24:00,76.6,71.0,29.97,WSW,246,1.0,4.0,83,0.00,,,0.00,Wunderground v.1.15,2013-02-14 01:24:00,
2013-02-13 20:29:00,76.4,71.2,29.97,WSW,238,0.0,4.0,84,0.00,,,0.00,Wunderground v.1.15,2013-02-14 01:29:00,
2013-02-13 20:34:00,76.3,71.1,29.98,SSW,194,0.0,6.0,84,0.00,,,0.00,Wunderground v.1.15,2013-02-14 01:34:00,
2013-02-13 20:39:00,76.2,71.0,29.98,West,273,3.0,6.0,84,0.00,,,0.00,Wunderground v.1.15,2013-02-14 01:39:00,
2013-02-13 20:44:00,76.1,71.3,29.98,SW,226,0.0,3.0,85,0.00,,,0.00,Wunderground v.1.15,2013-02-14 01:44:00,
2013-02-13 20:49:00,76.0,71.2,29.98,SSW,194,0.0,3.0,85,0.00,,,0.00,Wunderground v.1.15,2013-02-14 01:49:00,
2013-02-13 20:54:00,75.9,71.1,29.98,SW,236,1.0,4.0,85,0.00,,,0.00,Wunderground v.1.15,2013-02-14 01:54:00,
2013-02-13 20:59:00,75.8,71.3,29.98,SSW,210,1.0,4.0,86,0.00,,,0.00,Wunderground v.1.15,2013-02-14 01:59:00,
2013-02-13 21:04:00,75.7,71.2,29.98,SSW,201,2.0,5.0,86,0.00,,,0.00,Wunderground v.1.15,2013-02-14 02:04:00,
2013-02-13 21:09:00,75.6,71.5,29.98,WSW,255,0.0,5.0,87,0.00,,,0.00,Wunderground v.1.15,2013-02-14 02:09:00,
2013-02-13 21:15:00,75.5,71.4,29.98,SW,236,0.0,5.0,87,0.00,,,0.00,Wunderground v.1.15,2013-02-14 02:15:00,
2013-02-13 21:20:00,75.4,71.3,29.98,SW,226,1.0,5.0,87,0.00,,,0.00,Wunderground v.1.15,2013-02-14 02:20:00,
2013-02-13 21:25:00,75.3,71.5,29.98,SW,228,2.0,3.0,88,0.00,,,0.00,Wunderground v.1.15,2013-02-14 02:25:00,
2013-02-13 21:30:00,75.2,71.4,29.98,SW,228,0.0,3.0,88,0.00,,,0.00,Wunderground v.1.15,2013-02-14 02:30:00,
2013-02-13 21:34:00,75.0,71.2,29.98,SW,231,0.0,1.0,88,0.00,,,0.00,Wunderground v.1.15,2013-02-14 02:34:00,
2013-02-13 21:40:00,74.9,71.1,29.99,SW,221,0.0,0.0,88,0.00,,,0.00,Wunderground v.1.15,2013-02-14 02:40:00,
2013-02-13 21:45:00,74.6,71.1,29.99,SSW,207,0.0,2.0,89,0.00,,,0.00,Wunderground v.1.15,2013-02-14 02:45:00,
2013-02-13 21:50:00,74.4,70.9,29.99,SW,214,0.0,0.0,89,0.00,,,0.00,Wunderground v.1.15,2013-02-14 02:50:00,
2013-02-13 21:55:00,74.2,71.1,29.99,SW,221,0.0,1.0,90,0.00,,,0.00,Wunderground v.1.15,2013-02-14 02:55:00,
2013-02-13 22:00:00,74.1,71.0,29.99,SW,219,0.0,0.0,90,0.00,,,0.00,Wunderground v.1.15,2013-02-14 03:00:00,
2013-02-13 22:05:00,74.0,70.9,29.99,SW,218,0.0,1.0,90,0.00,,,0.00,Wunderground v.1.15,2013-02-14 03:05:00,
2013-02-13 22:10:00,73.9,71.1,29.99,SSW,204,0.0,0.0,91,0.00,,,0.00,Wunderground v.1.15,2013-02-14 03:10:00,
2013-02-13 22:15:00,73.8,71.0,29.99,SSW,211,0.0,2.0,91,0.00,,,0.00,Wunderground v.1.15,2013-02-14 03:15:00,
2013-02-13 22:20:00,73.7,70.9,29.99,South,174,0.0,0.0,91,0.00,,,0.00,Wunderground v.1.15,2013-02-14 03:20:00,
2013-02-13 22:25:00,73.7,70.9,30.00,SSW,210,1.0,1.0,91,0.00,,,0.00,Wunderground v.1.15,2013-02-14 03:25:00,
2013-02-13 22:30:00,73.6,70.8,30.00,SW,231,1.0,2.0,91,0.00,,,0.00,Wunderground v.1.15,2013-02-14 03:30:00,
2013-02-13 22:35:00,73.6,70.8,30.00,SW,228,1.0,3.0,91,0.00,,,0.00,Wunderground v.1.15,2013-02-14 03:35:00,
2013-02-13 22:40:00,73.6,70.8,30.00,SSE,156,2.0,2.0,91,0.00,,,0.00,Wunderground v.1.15,2013-02-14 03:40:00,
2013-02-13 22:45:00,73.6,70.8,30.00,SSW,204,0.0,3.0,91,0.00,,,0.00,Wunderground v.1.15,2013-02-14 03:45:00,
2013-02-13 22:50:00,73.6,70.8,30.00,SSW,204,0.0,1.0,91,0.00,,,0.00,Wunderground v.1.15,2013-02-14 03:50:00,
2013-02-13 22:55:00,73.6,70.8,30.00,SSW,200,2.0,3.0,91,0.00,,,0.00,Wunderground v.1.15,2013-02-14 03:55:00,
2013-02-13 23:02:00,73.6,70.8,30.00,SSW,212,0.0,3.0,91,0.00,,,0.00,Wunderground v.1.15,2013-02-14 04:02:00,
2013-02-13 23:07:00,73.6,70.8,30.00,SSW,200,2.0,3.0,91,0.00,,,0.00,Wunderground v.1.15,2013-02-14 04:07:00,
2013-02-13 23:12:00,73.6,70.8,30.00,SSW,198,1.0,2.0,91,0.00,,,0.00,Wunderground v.1.15,2013-02-14 04:12:00,
2013-02-13 23:17:00,73.6,70.8,30.00,SSW,205,1.0,2.0,91,0.00,,,0.00,Wunderground v.1.15,2013-02-14 04:17:00,
2013-02-13 23:22:00,73.6,71.1,30.00,SW,231,0.0,2.0,92,0.00,,,0.00,Wunderground v.1.15,2013-02-14 04:22:00,
2013-02-13 23:27:00,73.5,71.0,30.00,SW,226,1.0,2.0,92,0.00,,,0.00,Wunderground v.1.15,2013-02-14 04:27:00,
2013-02-13 23:32:00,73.4,70.9,30.00,SE,129,0.0,2.0,92,0.00,,,0.00,Wunderground v.1.15,2013-02-14 04:32:00,
2013-02-13 23:37:00,73.4,70.9,30.00,SSW,205,1.0,3.0,92,0.00,,,0.00,Wunderground v.1.15,2013-02-14 04:37:00,
2013-02-13 23:42:00,73.3,70.8,30.00,SW,218,2.0,2.0,92,0.00,,,0.00,Wunderground v.1.15,2013-02-14 04:42:00,
2013-02-13 23:47:00,73.2,71.1,30.00,SW,217,0.0,2.0,93,0.00,,,0.00,Wunderground v.1.15,2013-02-14 04:47:00,
2013-02-13 23:52:00,73.2,71.1,30.00,SSW,210,0.0,1.0,93,0.00,,,0.00,Wunderground v.1.15,2013-02-14 04:52:00,
2013-02-13 23:57:00,73.1,71.0,30.00,SW,221,1.0,1.0,93,0.00,,,0.00,Wunderground v.1.15,2013-02-14 04:57:00,